TimeAEST,TemperatureF,Dew PointF,Humidity,Sea Level PressureIn,VisibilityMPH,Wind Direction,Wind SpeedMPH,Gust SpeedMPH,PrecipitationIn,Events,Conditions,WindDirDegrees,DateUTC
12:00 AM,70,69,95,30.00,,NW,3.5,,,,,310,2013-09-13 14:00:00
12:00 AM,69.8,69.8,100,30.01,-9999.0,NW,3.5,-,N/A,,Unknown,310,2013-09-13 14:00:00
12:30 AM,69.8,69.8,100,29.98,-9999.0,North,5.8,-,N/A,,Unknown,10,2013-09-13 14:30:00
1:00 AM,69.8,68.0,94,29.98,-9999.0,North,6.9,-,N/A,,Unknown,350,2013-09-13 15:00:00
1:30 AM,69.8,69.8,100,29.98,-9999.0,West,3.5,-,N/A,,Unknown,280,2013-09-13 15:30:00
2:00 AM,69.8,68.0,94,29.98,-9999.0,NNW,3.5,-,N/A,,Unknown,330,2013-09-13 16:00:00
2:30 AM,69.8,68.0,94,29.98,-9999.0,North,4.6,-,N/A,,Unknown,360,2013-09-13 16:30:00
3:00 AM,71,68,88,29.98,,North,3.5,,,,,350,2013-09-13 17:00:00
3:00 AM,71.6,68.0,88,29.98,-9999.0,North,3.5,-,N/A,,Unknown,350,2013-09-13 17:00:00
3:30 AM,69.8,68.0,94,29.98,-9999.0,NNW,4.6,-,N/A,,Unknown,340,2013-09-13 17:30:00
4:00 AM,69.8,68.0,94,29.98,-9999.0,NNW,3.5,-,N/A,,Unknown,330,2013-09-13 18:00:00
4:30 AM,69.8,69.8,100,29.98,-9999.0,WNW,4.6,-,N/A,,Unknown,290,2013-09-13 18:30:00
5:00 AM,69.8,69.8,100,29.98,-9999.0,WNW,2.3,-,N/A,,Unknown,290,2013-09-13 19:00:00
5:30 AM,69.8,69.8,100,29.98,-9999.0,WSW,4.6,-,N/A,,Unknown,250,2013-09-13 19:30:00
6:00 AM,70,69,94,30.00,,Calm,Calm,,,,,,2013-09-13 20:00:00
6:00 AM,69.8,68.0,94,30.01,-9999.0,Calm,Calm,-,N/A,,Unknown,0,2013-09-13 20:00:00
6:30 AM,69.8,69.8,100,30.01,-9999.0,Calm,Calm,-,N/A,,Unknown,0,2013-09-13 20:30:00
7:00 AM,69.8,69.8,100,30.01,-9999.0,Calm,Calm,-,N/A,,Unknown,0,2013-09-13 21:00:00
7:30 AM,71.6,69.8,94,30.04,-9999.0,West,3.5,-,N/A,,Unknown,280,2013-09-13 21:30:00
8:00 AM,71.6,69.8,94,30.04,-9999.0,NW,4.6,-,N/A,,Unknown,310,2013-09-13 22:00:00
8:30 AM,75.2,69.8,83,30.04,-9999.0,NNW,6.9,-,N/A,,Unknown,330,2013-09-13 22:30:00
9:00 AM,75,68,74,30.05,,NNW,8.1,,,,,330,2013-09-13 23:00:00
9:00 AM,75.2,68.0,78,30.04,-9999.0,NNW,8.1,-,N/A,,Unknown,330,2013-09-13 23:00:00
9:30 AM,75.2,68.0,78,30.04,-9999.0,NNW,6.9,-,N/A,,Unknown,340,2013-09-13 23:30:00
10:00 AM,77.0,71.6,83,30.04,-9999.0,East,3.5,-,N/A,,Unknown,100,2013-09-14 00:00:00
10:30 AM,80.6,69.8,70,30.04,-9999.0,North,5.8,-,N/A,,Unknown,10,2013-09-14 00:30:00
11:00 AM,78.8,68.0,69,30.01,-9999.0,NW,10.4,-,N/A,,Unknown,320,2013-09-14 01:00:00
11:30 AM,78.8,68.0,69,30.01,-9999.0,NNW,12.7,-,N/A,,Unknown,330,2013-09-14 01:30:00
12:00 PM,80,68,58,30.00,,NW,12.7,,,,,310,2013-09-14 02:00:00
12:00 PM,78.8,68.0,69,30.01,-9999.0,NW,12.7,-,N/A,,Unknown,310,2013-09-14 02:00:00
12:30 PM,80.6,68.0,65,29.98,-9999.0,NW,11.5,-,N/A,,Unknown,320,2013-09-14 02:30:00
1:00 PM,80.6,68.0,65,29.98,-9999.0,NNW,11.5,-,N/A,,Unknown,330,2013-09-14 03:00:00
1:30 PM,80.6,68.0,65,29.95,-9999.0,NW,10.4,-,N/A,,Unknown,320,2013-09-14 03:30:00
2:00 PM,80.6,68.0,65,29.95,-9999.0,NE,5.8,-,N/A,,Unknown,50,2013-09-14 04:00:00
2:30 PM,80.6,69.8,70,29.95,-9999.0,ESE,3.5,-,N/A,,Unknown,110,2013-09-14 04:30:00
3:00 PM,78,69,67,29.94,,East,9.2,,,,,90,2013-09-14 05:00:00
3:00 PM,77.0,69.8,78,29.95,-9999.0,East,9.2,-,N/A,,Unknown,90,2013-09-14 05:00:00
3:30 PM,78.8,69.8,74,29.95,-9999.0,ESE,8.1,-,N/A,,Unknown,110,2013-09-14 05:30:00
4:00 PM,80.6,69.8,70,29.95,-9999.0,West,6.9,-,N/A,,Unknown,280,2013-09-14 06:00:00
4:30 PM,78.8,69.8,74,29.95,-9999.0,NW,8.1,-,N/A,,Unknown,310,2013-09-14 06:30:00
5:00 PM,77.0,69.8,78,29.95,-9999.0,NW,10.4,-,N/A,,Unknown,320,2013-09-14 07:00:00
5:30 PM,77.0,69.8,78,29.95,-9999.0,WNW,6.9,-,N/A,,Unknown,300,2013-09-14 07:30:00
6:00 PM,75,69,78,29.96,,North,4.6,,,,,0,2013-09-14 08:00:00
6:00 PM,75.2,69.8,83,29.95,-9999.0,North,4.6,-,N/A,,Unknown,360,2013-09-14 08:00:00
6:30 PM,73.4,68.0,83,29.98,-9999.0,NNE,3.5,-,N/A,,Unknown,30,2013-09-14 08:30:00
7:00 PM,73.4,68.0,83,29.98,-9999.0,NNE,4.6,-,N/A,,Unknown,20,2013-09-14 09:00:00
7:30 PM,71.6,68.0,88,29.98,-9999.0,NNE,4.6,-,N/A,,Unknown,20,2013-09-14 09:30:00
8:00 PM,71.6,68.0,88,29.98,-9999.0,North,4.6,-,N/A,,Unknown,10,2013-09-14 10:00:00
8:30 PM,71.6,68.0,88,30.01,-9999.0,NE,6.9,-,N/A,,Unknown,40,2013-09-14 10:30:00
9:00 PM,71,69,90,30.00,,NE,6.9,,,,,40,2013-09-14 11:00:00
9:00 PM,71.6,68.0,88,30.01,-9999.0,NE,6.9,-,N/A,,Unknown,40,2013-09-14 11:00:00
9:30 PM,71.6,69.8,94,30.01,-9999.0,NE,4.6,-,N/A,,Unknown,50,2013-09-14 11:30:00
10:00 PM,69.8,68.0,94,30.01,-9999.0,Calm,Calm,-,N/A,,Unknown,0,2013-09-14 12:00:00
10:30 PM,69.8,69.8,100,30.01,-9999.0,Calm,Calm,-,N/A,,Unknown,0,2013-09-14 12:30:00
11:00 PM,69.8,69.8,100,30.01,-9999.0,Calm,Calm,-,N/A,,Unknown,0,2013-09-14 13:00:00
11:30 PM,69.8,69.8,100,30.01,-9999.0,North,3.5,-,N/A,,Unknown,360,2013-09-14 13:30:00